Flag for U.S.A. Weather past 2 weeks in Cumberland, Maryland, U.S.A.

Now
66 °F

Fog.


Feels Like: 66 °F
Forecast: 67 / 88 °F
Wind: No wind

Location: Eastern West Virginia Regional Airport

Current Time: Sep 3, 2015 at 3:53:04 AM

Latest Report: Sep 3, 2015 at 2:53 AM


Visibility: 4 mi

Pressure: 29.93 "Hg

Humidity: 96%

Dew point: 65 °F

Location of CumberlandLocation

Historic Weather in Cumberland — Graph

°F

Cumberland temperature yesterday

Maximum temperature yesterday: 89 °F (at 1:53 PM)
Minimum temperature yesterday: 66 °F (at 5:53 AM)
Average temperature yesterday: 76 °F

Past Weeks' High & Low Weather Summary

 TemperatureHumidityPressure
High92 °F (Sep 1, 4:53 PM)97% (Aug 20, 8:53 PM)30.22 "Hg (Aug 20, 8:53 PM)
Low53 °F (Aug 23, 5:53 AM)32% (Aug 25, 5:53 PM)29.81 "Hg (Aug 24, 6:53 PM)
Average72 °F70%30.04 "Hg
* Reported Aug 19 2:53 AM — Sep 3 2:53 AM, Cumberland, Weather by CustomWeather, © 2015

Note: Actual official high and low records may vary slightly from our data, if they occured in-between our weather recording intervals... More about our weather records

Advertising

Cumberland weather history for previous 24 hours

 ConditionsComfort  
Time TempWeatherWind HumidityBarometerVisibility
2:53 AM
Thu, Sep 3
66 °FFog.No wind96%29.93 "Hg4 mi
1:53 AM66 °FFog.No wind96%29.95 "Hg5 mi
12:53 AM67 °FFog.No wind97%29.96 "Hg5 mi
11:53 PM
Wed, Sep 2
69 °FClear.No wind90%29.96 "Hg7 mi
10:53 PM70 °FFog.5 mph93%29.96 "Hg5 mi
9:53 PM71 °FClear.3 mph90%29.96 "Hg7 mi
8:53 PM74 °FClear.3 mph85%29.96 "Hg8 mi
7:53 PM77 °FSunny.5 mph60%29.94 "Hg10 mi
6:53 PM83 °FSunny.7 mph50%29.95 "Hg10 mi
5:53 PM85 °FSunny.6 mph50%29.98 "Hg10 mi
4:53 PM83 °FSunny.7 mph59%29.97 "Hg10 mi
3:53 PM81 °FSunny.12 mph62%29.99 "Hg8 mi
2:53 PM89 °FPassing clouds.10 mph43%29.98 "Hg10 mi
1:53 PM89 °FSunny.7 mph46%30.00 "Hg9 mi
12:53 PM88 °FPassing clouds.6 mph48%30.01 "Hg8 mi
11:53 AM88 °FPassing clouds.N/A50%30.04 "Hg7 mi
10:53 AM85 °FSunny.3 mph53%30.06 "Hg7 mi
9:53 AM77 °FSunny.No wind69%30.06 "Hg6 mi
8:53 AM73 °FHaze.No wind79%30.07 "Hg4 mi
7:53 AM69 °FFog.No wind90%30.08 "Hg3 mi
6:53 AM66 °FFog.N/A93%30.06 "Hg3 mi
5:53 AM66 °FFog.No wind93%30.05 "Hg4 mi
4:53 AM67 °FFog.No wind93%30.05 "Hg4 mi
3:53 AM68 °FFog.No wind90%30.05 "Hg5 mi
Weather by CustomWeather, © 2015

See weather overviewHow to use our weather pages